Back to catalog

DELTA 1 DEB

AliveSSO
NORAD 7022·DEBRIS·🇺🇸 United States

Launched Nov 6, 1973 from Vandenberg Space Force Base

Loading…

Next Passes (next 24 hours)

TLE

FreshSource: Space-Track

Epoch: Sep 14, 2026, 04:23 UTC

1 07022U 73086N   26257.18289212 -.00000033  00000-0  89747-4 0  9996
2 07022 102.3206 339.7177 0186319  77.5139 311.6251 12.44405393399740

Track DELTA 1 DEB in real time with AllMySat

Download on the App Store